Des Moines, Washington, United States
Lat: 47.40N, Lon: 122.32W
Wx Zone: WAZ508
Local Info
Past Weather Observations for Today

NOTE: This archive is for the closest National Weather Service station to Des Moines. Information may differ from the station used for current weather conditions.

Click here for Long-term Archive

Time Weather Temperature Dewpoint Humidity Pressure Winds Precip Visibility
18:53
Mostly Cloudy
70°F / 21°C 48°F / 9°C 46% 30.21 in
(1023 mb)
NW 4.6 mph
(NW 7 kph)
- 10SM
17:53
Mostly Cloudy
72°F / 22°C 48°F / 9°C 44% 30.21 in
(1023 mb)
NW 5.8 mph
(NW 9 kph)
- 10SM
16:53
Mostly Cloudy
73°F / 23°C 48°F / 9°C 41% 30.21 in
(1023 mb)
Variable 5.8 mph
(Variable 9 kph)
- 10SM
15:53
Mostly Cloudy
72°F / 22°C 48°F / 9°C 44% 30.21 in
(1023 mb)
SSW 5.8 mph
(SSW 9 kph)
- 10SM
14:53
Mostly Cloudy
73°F / 23°C 46°F / 8°C 38% 30.21 in
(1023 mb)
Calm - 10SM
13:53
Partly Cloudy
72°F / 22°C 50°F / 10°C 47% 30.21 in
(1023 mb)
W 5.8 mph
(W 9 kph)
- 10SM
12:53
Partly Cloudy
70°F / 21°C 50°F / 10°C 50% 30.21 in
(1023 mb)
Variable 4.6 mph
(Variable 7 kph)
- 10SM
11:53
Partly Cloudy
66°F / 19°C 52°F / 11°C 60% 30.21 in
(1023 mb)
SW 8.1 mph
(SW 13 kph)
- 10SM
10:53
Partly Cloudy
66°F / 19°C 52°F / 11°C 60% 30.21 in
(1023 mb)
W 10.4 mph
(W 17 kph)
- 10SM
09:53
Partly Cloudy
63°F / 17°C 54°F / 12°C 73% 30.21 in
(1023 mb)
WNW 8.1 mph
(WNW 13 kph)
- 10SM
09:25
Partly Cloudy
63°F / 17°C 55°F / 13°C 77% 30.21 in
(1023 mb)
Variable 4.6 mph
(Variable 7 kph)
- 10SM
08:53
Mostly Cloudy
59°F / 15°C 54°F / 12°C 82% 30.21 in
(1023 mb)
SSW 3.5 mph
(SSW 6 kph)
- 10SM
08:25
Mostly Cloudy
59°F / 15°C 54°F / 12°C 82% 30.21 in
(1023 mb)
SSE 3.5 mph
(SSE 6 kph)
- 10SM
07:53
Overcast
57°F / 14°C 54°F / 12°C 88% 30.21 in
(1023 mb)
Calm - 10SM
06:53
Overcast
57°F / 14°C 54°F / 12°C 88% 30.18 in
(1022 mb)
SW 4.6 mph
(SW 7 kph)
- 10SM
06:16
Overcast
Fog And Mist
57°F / 14°C 54°F / 12°C 88% 30.18 in
(1022 mb)
S 3.5 mph
(S 6 kph)
- 3SM
06:00
Overcast
Fog And Mist
55°F / 13°C 54°F / 12°C 94% 30.18 in
(1022 mb)
SSE 4.6 mph
(SSE 7 kph)
- 3SM
05:53
Overcast
Fog And Mist
55°F / 13°C 54°F / 12°C 94% 30.18 in
(1022 mb)
SSE 4.6 mph
(SSE 7 kph)
- 1 1/2SM
05:44
Overcast
Fog And Mist
55°F / 13°C 54°F / 12°C 94% 30.18 in
(1022 mb)
SSE 3.5 mph
(SSE 6 kph)
- 1 1/2SM
05:27
Obscured
Fog
55°F / 13°C 54°F / 12°C 94% 30.18 in
(1022 mb)
Calm - 1/2SM
05:12
Obscured
Fog
55°F / 13°C 54°F / 12°C 94% 30.18 in
(1022 mb)
Calm - 1/2SM
05:01
Overcast
Fog
55°F / 13°C 54°F / 12°C 94% 30.15 in
(1021 mb)
Calm - 1/2SM
04:53
Mostly Cloudy
Fog And Mist
55°F / 13°C 54°F / 12°C 94% 30.15 in
(1021 mb)
Calm - 1 1/2SM
04:20
Mostly Cloudy
55°F / 13°C 52°F / 11°C 88% 30.15 in
(1021 mb)
Calm - 10SM
03:53
Mostly Cloudy
55°F / 13°C 52°F / 11°C 88% 30.15 in
(1021 mb)
SSE 3.5 mph
(SSE 6 kph)
- 10SM
02:53
Mostly Cloudy
55°F / 13°C 52°F / 11°C 88% 30.12 in
(1020 mb)
SE 4.6 mph
(SE 7 kph)
- 10SM
01:53
Mostly Cloudy
55°F / 13°C 54°F / 12°C 94% 30.12 in
(1020 mb)
SE 5.8 mph
(SE 9 kph)
- 10SM
00:53
Clear
55°F / 13°C 54°F / 12°C 94% 30.12 in
(1020 mb)
Calm - 10SM
Time Weather Temperature Dewpoint Humidity Pressure Winds Precip Visibility


Weather for websites

WeatherForYou.com, LLC is not responsible for any damages or problems caused by this service. Current weather conditions are obtained from the closest station including government and personal stations which may have varying degrees of accuracy. Weather forecasts are derived from the NOAA NDFD. Like all things, this site belongs to Jesus Christ... He just trusts us to maintain it. If you have any questions or comments email webmaster@weatherforyou.com

Copyright © 2015, WeatherForYou.com LLC. All rights reserved.